Estación municipal de St. Julià de Vilatorta (Osona, E.N.Guilleries-Savassona)

Consulta los datos en tiempo real de la estación municipal de St. Julià de Vilatorta





Hora UTC 01:40
Temperatura 17.3 ºC
Subsuelo 10 cm 14.0 ºC
Humedad 90.3 %
Presión 1020.3 hPa
Pluja 0.0 mm
Velocidad viento 3.4 km/h
Dirección viento E
Radiación solar 0.0 W/m²
Fuel 9.7 %

Webcam

Datos diarios 2026-09-02



Hora UTC (invierno +1h; verano +2h)
Temperatura (ºC) Humedad (%) Presión (hPa) Velocidad viento (km/h) Precipitación (mm) Fuel (%) Radiación solar (W/m²)
Hora UTC Aire Subsuelo 10 cm Humedad Presión Vel. Dir. Vel. Max Dir. Intent. máx 5 min. Fuel Rad. Sol.
00:05 17.4 14.5 89.0 1020.3 1.5 S 1.5 S 0.0 8.8 0.0
00:10 17.2 14.5 89.7 1020.3 2.2 SSE 3.3 S 0.0 9.0 0.0
00:15 17.1 14.4 90.3 1020.3 2.9 SSE 5.6 S 0.0 8.2 0.1
00:20 17.2 14.1 90.6 1020.3 2.7 S 4.3 SSW 0.0 8.3 0.2
00:25 17.2 14.2 90.5 1020.4 3.2 SSE 5.1 SSE 0.0 9.1 0.1
00:30 17.3 14.3 91.1 1020.4 2.3 SSE 4.6 SSW 0.0 9.2 0.3
00:35 17.4 14.3 91.0 1020.4 1.2 SE 1.9 SE 0.0 9.2 0.2
00:40 17.4 14.1 90.5 1020.4 1.6 ESE 2.9 SE 0.0 9.3 0.0
00:45 17.3 13.9 91.3 1020.4 3.7 E 6.7 E 0.0 9.3 0.3
00:50 17.3 13.9 91.4 1020.4 4.9 E 8.0 ESE 0.0 9.4 0.3
00:55 17.4 14.0 91.2 1020.4 4.2 E 7.8 ESE 0.0 9.4 0.2
01:00 17.4 14.0 90.6 1020.3 3.5 ESE 6.0 E 0.0 9.5 0.1
01:05 17.3 14.1 90.5 1020.3 2.5 SSE 5.3 SSE 0.0 9.5 0.0
01:10 17.1 14.6 90.9 1020.3 2.9 SE 5.5 SSE 0.0 9.6 0.1
01:15 17.2 14.5 91.2 1020.4 1.2 SE 3.2 SE 0.0 9.6 0.0
01:20 17.2 14.4 91.2 1020.4 2.9 E 5.1 ESE 0.0 9.6 0.1
01:25 17.3 14.3 91.2 1020.3 3.1 SE 5.6 ESE 0.0 9.7 0.2
01:30 17.4 14.2 90.5 1020.3 3.8 ESE 5.3 E 0.0 9.7 0.2
01:35 17.4 14.1 90.4 1020.3 2.6 ESE 4.2 ESE 0.0 9.4 0.0
01:40 17.3 14.0 90.3 1020.3 3.4 E 5.2 ESE 0.0 9.7 0.0
Máxima 17.4 14.6 91.4 1020.4 4.9 E 8.0 ESE 0.0 9.7 0.3
Mínima 17.1 13.9 89.0 1020.3 8.2
Total 0.0